Terminal Aerodrome Forecast
Issued by NWS

Home | Current Version | Previous Version | Text Only | Print | Product List | Glossary On
Versions: 1 2 3 4 5 6 7 8 9 10 11 12 13 14 15 16 17 18 19 20 21 22
088
FTUS44 KTSA 051613 AAB
TAFFYV
TAF AMD
KFYV 051613Z 0516/0612 14005KT 1SM BR BKN200
      TEMPO 0516/0518 1/4SM FZFG VV002
     FM051800 16007KT P6SM BKN120
     FM052200 14008KT P6SM SCT030 BKN100
     FM060000 VRB03KT 4SM -SHRA BR OVC025
     FM060900 35005KT 2SM BR OVC007=

USA.gov is the U.S. government's official web portal to all federal, state and local government web resources and services.